{"data":{"norad_id":51745,"intl_designator":"2022-016AH","name":"STARLINK-3449","alt_names":[],"object_type":"PAYLOAD","status":"ACTIVE","operator":null,"country":"US","launch_date":"2022-02-21","launch_site_code":"AFETR","launch_vehicle":null,"mission":null,"orbit_class":"UNKNOWN","rcs_meters":null,"size_class":null,"mass_kg":null,"dimensions":null,"purposes":["comms"],"wikipedia_slug":null,"has_3d_model":false,"image_url":null,"decayed_at":null,"tle_current":{"epoch":"2026-09-19T22:42:32.265792Z","epoch_age_seconds":99506,"freshness":"FRESH","line1":"1 51745U 22016AH  26262.94620678  .00000153  00000+0  15661-4 0  9994","line2":"2 51745  53.1590 151.9986 0001243  90.6078 269.5067 15.34385857253099","mean_motion":15.34385857,"eccentricity":0.0001243,"inclination_deg":53.159,"raan_deg":151.9986,"arg_perigee_deg":90.6078,"mean_anomaly_deg":269.5067,"bstar":1.5661e-5,"rev_number":25309,"period_min":93.848623110712,"perigee_km":461.89495483952,"apogee_km":463.59559817346,"semimajor_km":6840.8822765065,"source":"CELESTRAK","updated_at":"2026-09-20T09:00:39.932213Z"}}}